Location: Clanezzo
(45.7500°N, 9.6000°E)
Time: 14:08:18
(UTC+00:00)

Cosmos 1242 Rocket - Pass Details

Date: 12 May 2021
Orbit: 446 x 484 km, 81.2° (Epoch: 19 June)

Event Time Altitude Azimuth Distance (km) Brightness Sun altitude
Rises 19:53:22 0° 200° (SSW) 2,509 6.0 -10.9°
Reaches altitude 10° 19:55:29 10° 205° (SSW) 1,631 5.1 -11.2°
Maximum altitude 19:58:59 53° 283° (WNW) 583 3.3 -11.7°
Drops below altitude 10° 20:02:28 10° 2° (N) 1,623 5.8 -12.1°
Sets 20:04:35 0° 7° (N) 2,496 6.7 -12.4°
